Simultaneous Nadir Overpasses (SNOs) Predictions

Prediction of SNOs between GOES-15 and TERRA Satellite Orbit:

Table of predicted SNOs for the next 14.0 days since TLE Epoch: 1/27/2024
Index Date Time (GOES-15) GOES-15 Lat,Lon TERRA Lat,Lon Distance(km) Time Diff (sec)
1 01/28/2024 05:48:40 0.01, 61.73 -0.05, 61.93 23.89 80
2 01/30/2024 05:31:44 0.02, 61.69 -0.90, 66.02 492.16 80
3 01/30/2024 17:51:54 -0.02, 61.68 -0.16, 61.12 64.07 80
4 02/01/2024 17:32:18 -0.02, 61.65 0.72, 65.20 403.37 80
5 02/02/2024 05:52:20 0.02, 61.65 0.27, 60.33 150.34 80
6 02/04/2024 05:38:03 0.01, 61.63 -0.58, 64.42 316.80 80
7 02/04/2024 17:58:14 -0.01, 61.61 -0.46, 59.51 238.42 80
8 02/06/2024 17:38:37 0.00, 61.60 0.43, 63.60 227.30 80
9 02/07/2024 05:58:38 -0.00, 61.62 0.61, 58.73 328.23 80
10 02/09/2024 05:44:20 -0.00, 61.61 -0.24, 62.83 137.85 80
11 02/09/2024 18:04:31 0.00, 61.58 -0.77, 57.92 416.08 80
